| time (UTC) | temp F | wind direction | speed MPH | gust MPH | rain 1hr in | rain 24hr in | rain mn in | humidity % | barometer mb |
| 20260509024014 | 72 | 214 | 3.0 | 7.0 | 0.00 | 0.00 | 0.00 | 80 | 1009.1 |
| 20260509023515 | 72 | 200 | 3.0 | 7.0 | 0.00 | 0.00 | 0.00 | 80 | 1008.9 |
| 20260509023036 | 72 | 209 | 1.0 | 5.0 | 0.00 | 0.00 | 0.00 | 80 | 1008.9 |
| 20260509022514 | 72 | 0 | 1.0 | 6.0 | 0.00 | 0.00 | 0.00 | 80 | 1008.7 |
| 20260509022017 | 73 | 196 | 1.0 | 7.0 | 0.00 | 0.00 | 0.00 | 80 | 1008.7 |
| 20260509021538 | 73 | 0 | 2.0 | 7.0 | 0.00 | 0.00 | 0.00 | 80 | 1008.7 |
| 20260509021014 | 73 | 207 | 1.0 | 5.0 | 0.00 | 0.00 | 0.00 | 80 | 1008.7 |
| 20260509020515 | 73 | 0 | 0.0 | 5.0 | 0.00 | 0.00 | 0.00 | 79 | 1008.7 |
| 20260509020032 | 73 | 174 | 2.0 | 6.0 | 0.00 | 0.00 | 0.00 | 79 | 1008.7 |
| 20260509015514 | 73 | 135 | 1.0 | 6.0 | 0.00 | 0.00 | 0.00 | 79 | 1008.7 |
| 20260509015015 | 73 | 209 | 1.0 | 5.0 | 0.00 | 0.00 | 0.00 | 79 | 1008.6 |
| 20260509014534 | 73 | 0 | 2.0 | 5.0 | 0.00 | 0.00 | 0.00 | 78 | 1008.7 |
| 20260509014018 | 74 | 0 | 1.0 | 4.0 | 0.00 | 0.00 | 0.00 | 78 | 1008.7 |
| 20260509013513 | 74 | 0 | 0.0 | 6.0 | 0.00 | 0.00 | 0.00 | 77 | 1008.7 |
| 20260509013030 | 73 | 0 | 1.0 | 6.0 | 0.00 | 0.00 | 0.00 | 76 | 1008.6 |
| 20260509012516 | 74 | 0 | 0.0 | 4.0 | 0.00 | 0.00 | 0.00 | 76 | 1008.5 |
| 20260509012019 | 74 | 177 | 0.0 | 5.0 | 0.00 | 0.00 | 0.00 | 76 | 1008.5 |
| 20260509011535 | 74 | 177 | 2.0 | 6.0 | 0.00 | 0.00 | 0.00 | 75 | 1008.5 |
| 20260509011014 | 74 | 206 | 1.0 | 6.0 | 0.00 | 0.00 | 0.00 | 75 | 1008.4 |
| 20260509010515 | 74 | 205 | 1.0 | 6.0 | 0.00 | 0.00 | 0.00 | 75 | 1008.2 |
| 20260509010032 | 74 | 201 | 0.0 | 6.0 | 0.00 | 0.00 | 0.00 | 75 | 1008.2 |
| 20260509005514 | 74 | 0 | 0.0 | 6.0 | 0.00 | 0.00 | 0.00 | 74 | 1008.1 |
| 20260509005014 | 74 | 0 | 2.0 | 8.0 | 0.00 | 0.00 | 0.00 | 74 | 1008.0 |
| 20260509004548 | 74 | 160 | 3.0 | 8.0 | 0.00 | 0.00 | 0.00 | 74 | 1008.1 |
| 20260509004018 | 74 | 0 | 1.0 | 7.0 | 0.00 | 0.00 | 0.00 | 73 | 1008.0 |
| 20260509003515 | 75 | 172 | 2.0 | 9.0 | 0.00 | 0.00 | 0.00 | 73 | 1008.0 |
| 20260509003036 | 75 | 188 | 1.0 | 9.0 | 0.00 | 0.00 | 0.00 | 73 | 1007.8 |
| 20260509002514 | 75 | 181 | 2.0 | 7.0 | 0.00 | 0.00 | 0.00 | 73 | 1007.9 |
| 20260509002016 | 75 | 0 | 1.0 | 7.0 | 0.00 | 0.00 | 0.00 | 72 | 1007.9 |
| 20260509001532 | 75 | 226 | 2.0 | 9.0 | 0.00 | 0.00 | 0.00 | 72 | 1007.8 |
| 20260509001015 | 75 | 146 | 3.0 | 9.0 | 0.00 | 0.00 | 0.00 | 72 | 1007.9 |
| 20260509000515 | 75 | 218 | 2.0 | 7.0 | 0.00 | 0.00 | 0.00 | 72 | 1008.0 |
| 20260509000034 | 75 | 183 | 0.0 | 8.0 | 0.00 | 0.00 | 0.00 | 71 | 1008.1 |
| 20260508235518 | 75 | 173 | 3.0 | 8.0 | 0.00 | 0.00 | 0.00 | 71 | 1008.1 |
| 20260508235017 | 75 | 185 | 2.0 | 8.0 | 0.00 | 0.00 | 0.00 | 71 | 1008.3 |
| 20260508234533 | 76 | 0 | 0.0 | 7.0 | 0.00 | 0.00 | 0.00 | 70 | 1008.2 |
| 20260508234014 | 76 | 172 | 3.0 | 7.0 | 0.00 | 0.00 | 0.00 | 70 | 1008.3 |
| 20260508233518 | 76 | 0 | 1.0 | 6.0 | 0.00 | 0.00 | 0.00 | 70 | 1008.3 |
| 20260508233032 | 76 | 201 | 1.0 | 6.0 | 0.00 | 0.00 | 0.00 | 71 | 1008.4 |
| 20260508232515 | 76 | 0 | 2.0 | 6.0 | 0.00 | 0.00 | 0.00 | 70 | 1008.3 |
| 20260508232016 | 75 | 185 | 3.0 | 6.0 | 0.00 | 0.00 | 0.00 | 70 | 1008.4 |
| 20260508231534 | 75 | 218 | 3.0 | 11.0 | 0.00 | 0.00 | 0.00 | 69 | 1008.5 |
| 20260508231018 | 76 | 193 | 4.0 | 11.0 | 0.00 | 0.00 | 0.00 | 69 | 1008.5 |
| 20260508230517 | 76 | 171 | 3.0 | 9.0 | 0.00 | 0.00 | 0.00 | 69 | 1008.5 |
| 20260508230033 | 76 | 168 | 2.0 | 9.0 | 0.00 | 0.00 | 0.00 | 69 | 1008.5 |
| 20260508225516 | 76 | 208 | 4.0 | 8.0 | 0.00 | 0.00 | 0.00 | 69 | 1008.4 |
| 20260508225021 | 76 | 130 | 2.0 | 7.0 | 0.00 | 0.00 | 0.00 | 69 | 1008.6 |
| 20260508224543 | 76 | 0 | 2.0 | 9.0 | 0.00 | 0.00 | 0.00 | 68 | 1008.6 |
| 20260508224017 | 76 | 199 | 2.0 | 9.0 | 0.00 | 0.00 | 0.00 | 68 | 1008.6 |
| 20260508223516 | 76 | 210 | 4.0 | 9.0 | 0.00 | 0.00 | 0.00 | 69 | 1008.5 |
| 20260508223046 | 76 | 181 | 3.0 | 9.0 | 0.00 | 0.00 | 0.00 | 69 | 1008.5 |
| 20260508222513 | 76 | 231 | 2.0 | 9.0 | 0.00 | 0.00 | 0.00 | 69 | 1008.5 |
| 20260508222017 | 76 | 159 | 3.0 | 11.0 | 0.00 | 0.00 | 0.00 | 69 | 1008.3 |
| 20260508221532 | 76 | 217 | 4.0 | 11.0 | 0.00 | 0.00 | 0.00 | 68 | 1008.3 |
| 20260508221016 | 76 | 199 | 4.0 | 11.0 | 0.00 | 0.00 | 0.00 | 68 | 1008.3 |
| 20260508220515 | 77 | 183 | 3.0 | 10.0 | 0.00 | 0.00 | 0.00 | 68 | 1008.3 |
| 20260508220039 | 76 | 209 | 2.0 | 10.0 | 0.00 | 0.00 | 0.00 | 69 | 1008.2 |
| 20260508215517 | 76 | 171 | 3.0 | 10.0 | 0.00 | 0.00 | 0.00 | 68 | 1008.2 |
| 20260508215015 | 76 | 210 | 2.0 | 8.0 | 0.00 | 0.00 | 0.00 | 68 | 1008.4 |
| 20260508214531 | 76 | 191 | 2.0 | 9.0 | 0.00 | 0.00 | 0.00 | 68 | 1008.3 |
| 20260508214016 | 76 | 243 | 2.0 | 9.0 | 0.00 | 0.00 | 0.00 | 67 | 1008.5 |
| 20260508213516 | 77 | 216 | 1.0 | 11.0 | 0.00 | 0.00 | 0.00 | 67 | 1008.5 |
| 20260508213033 | 78 | 144 | 2.0 | 11.0 | 0.00 | 0.00 | 0.00 | 64 | 1008.5 |
| 20260508212517 | 78 | 160 | 4.0 | 10.0 | 0.00 | 0.00 | 0.00 | 64 | 1008.4 |
| 20260508212014 | 79 | 173 | 2.0 | 10.0 | 0.00 | 0.00 | 0.00 | 66 | 1008.5 |
| 20260508211535 | 78 | 213 | 4.0 | 10.0 | 0.00 | 0.00 | 0.00 | 64 | 1008.6 |
| 20260508211016 | 78 | 114 | 3.0 | 8.0 | 0.00 | 0.00 | 0.00 | 67 | 1008.7 |
| 20260508210516 | 76 | 179 | 4.0 | 8.0 | 0.00 | 0.00 | 0.00 | 68 | 1008.9 |
| 20260508210033 | 75 | 202 | 1.0 | 6.0 | 0.00 | 0.00 | 0.00 | 69 | 1009.1 |
| 20260508205517 | 75 | 215 | 0.0 | 5.0 | 0.00 | 0.00 | 0.00 | 69 | 1009.5 |
| 20260508205017 | 75 | 217 | 1.0 | 8.0 | 0.00 | 0.00 | 0.00 | 68 | 1009.8 |
| 20260508204534 | 75 | 198 | 2.0 | 8.0 | 0.00 | 0.00 | 0.00 | 69 | 1010.0 |
| 20260508204013 | 75 | 169 | 2.0 | 5.0 | 0.00 | 0.00 | 0.00 | 68 | 1010.1 |
| 20260508203512 | 75 | 196 | 1.0 | 6.0 | 0.00 | 0.00 | 0.00 | 68 | 1010.4 |
| 20260508203030 | 75 | 216 | 2.0 | 8.0 | 0.00 | 0.00 | 0.00 | 68 | 1010.5 |
| 20260508202514 | 75 | 177 | 2.0 | 10.0 | 0.00 | 0.00 | 0.00 | 67 | 1010.6 |
| 20260508202021 | 76 | 183 | 3.0 | 10.0 | 0.00 | 0.00 | 0.00 | 67 | 1010.5 |
| 20260508201534 | 76 | 239 | 2.0 | 8.0 | 0.00 | 0.00 | 0.00 | 67 | 1010.6 |
| 20260508201016 | 76 | 0 | 0.0 | 6.0 | 0.00 | 0.00 | 0.00 | 66 | 1010.4 |
| 20260508200515 | 76 | 0 | 1.0 | 8.0 | 0.00 | 0.00 | 0.00 | 66 | 1010.4 |
| 20260508200033 | 76 | 198 | 4.0 | 8.0 | 0.00 | 0.00 | 0.00 | 66 | 1010.4 |
| 20260508195516 | 76 | 212 | 2.0 | 7.0 | 0.00 | 0.00 | 0.00 | 66 | 1010.3 |
| 20260508195014 | 77 | 217 | 3.0 | 10.0 | 0.00 | 0.00 | 0.00 | 66 | 1010.5 |
| 20260508194538 | 76 | 173 | 3.0 | 10.0 | 0.00 | 0.00 | 0.00 | 66 | 1010.4 |
| 20260508194013 | 76 | 207 | 3.0 | 8.0 | 0.00 | 0.00 | 0.00 | 66 | 1010.5 |
| 20260508193512 | 76 | 200 | 4.0 | 8.0 | 0.00 | 0.00 | 0.00 | 66 | 1010.6 |
| 20260508193030 | 77 | 157 | 2.0 | 10.0 | 0.00 | 0.00 | 0.00 | 65 | 1010.7 |
| 20260508192514 | 77 | 213 | 4.0 | 10.0 | 0.00 | 0.00 | 0.00 | 64 | 1010.6 |
| 20260508192016 | 78 | 181 | 3.0 | 7.0 | 0.00 | 0.00 | 0.00 | 64 | 1010.7 |
| 20260508191537 | 78 | 219 | 2.0 | 12.0 | 0.00 | 0.00 | 0.00 | 64 | 1010.7 |
| 20260508191014 | 78 | 0 | 2.0 | 12.0 | 0.00 | 0.00 | 0.00 | 64 | 1010.6 |
| 20260508190511 | 77 | 209 | 3.0 | 9.0 | 0.00 | 0.00 | 0.00 | 64 | 1010.7 |
| 20260508190032 | 78 | 189 | 3.0 | 9.0 | 0.00 | 0.00 | 0.00 | 65 | 1010.7 |
| 20260508185513 | 77 | 209 | 4.0 | 8.0 | 0.00 | 0.00 | 0.00 | 64 | 1010.7 |
| 20260508185012 | 78 | 222 | 1.0 | 7.0 | 0.00 | 0.00 | 0.00 | 64 | 1010.9 |
| 20260508184532 | 78 | 182 | 1.0 | 6.0 | 0.00 | 0.00 | 0.00 | 64 | 1010.7 |
| 20260508184013 | 77 | 186 | 1.0 | 8.0 | 0.00 | 0.00 | 0.00 | 64 | 1010.8 |
| 20260508183519 | 77 | 172 | 3.0 | 8.0 | 0.00 | 0.00 | 0.00 | 63 | 1011.0 |
| 20260508183034 | 77 | 0 | 2.0 | 6.0 | 0.00 | 0.00 | 0.00 | 64 | 1010.8 |
| 20260508182515 | 77 | 197 | 1.0 | 6.0 | 0.00 | 0.00 | 0.00 | 63 | 1011.0 |
| 20260508182015 | 77 | 216 | 2.0 | 6.0 | 0.00 | 0.00 | 0.00 | 65 | 1011.2 |
| 20260508181533 | 77 | 210 | 3.0 | 6.0 | 0.00 | 0.00 | 0.00 | 63 | 1011.4 |
| 20260508181011 | 77 | 0 | 2.0 | 7.0 | 0.00 | 0.00 | 0.00 | 63 | 1011.3 |
| 20260508180512 | 77 | 263 | 2.0 | 7.0 | 0.00 | 0.00 | 0.00 | 62 | 1011.4 |
| 20260508180031 | 77 | 204 | 0.0 | 8.0 | 0.00 | 0.00 | 0.00 | 63 | 1011.4 |
| 20260508175514 | 77 | 179 | 3.0 | 8.0 | 0.00 | 0.00 | 0.00 | 62 | 1011.4 |
| 20260508175014 | 77 | 153 | 1.0 | 7.0 | 0.00 | 0.00 | 0.00 | 62 | 1011.4 |
| 20260508174533 | 76 | 182 | 3.0 | 7.0 | 0.00 | 0.00 | 0.00 | 63 | 1011.7 |
| 20260508174020 | 76 | 203 | 3.0 | 7.0 | 0.00 | 0.00 | 0.00 | 62 | 1011.8 |
| 20260508173511 | 76 | 210 | 4.0 | 7.0 | 0.00 | 0.00 | 0.00 | 63 | 1011.7 |
| 20260508173031 | 75 | 167 | 2.0 | 6.0 | 0.00 | 0.00 | 0.00 | 63 | 1011.7 |
| 20260508172516 | 75 | 0 | 2.0 | 6.0 | 0.00 | 0.00 | 0.00 | 64 | 1011.8 |
| 20260508172016 | 74 | 194 | 2.0 | 8.0 | 0.00 | 0.00 | 0.00 | 64 | 1011.9 |
| 20260508171532 | 74 | 201 | 2.0 | 8.0 | 0.00 | 0.00 | 0.00 | 64 | 1012.0 |
| 20260508171010 | 73 | 222 | 2.0 | 8.0 | 0.00 | 0.00 | 0.00 | 66 | 1012.2 |
| 20260508170513 | 73 | 193 | 3.0 | 8.0 | 0.00 | 0.00 | 0.00 | 67 | 1012.5 |
| 20260508170031 | 73 | 212 | 1.0 | 5.0 | 0.00 | 0.00 | 0.00 | 67 | 1012.6 |
| 20260508165513 | 72 | 229 | 1.0 | 8.0 | 0.00 | 0.00 | 0.00 | 67 | 1013.0 |
| 20260508165016 | 72 | 127 | 3.0 | 9.0 | 0.00 | 0.00 | 0.00 | 66 | 1013.0 |
| 20260508164530 | 72 | 227 | 4.0 | 9.0 | 0.00 | 0.00 | 0.00 | 66 | 1013.0 |
| 20260508164014 | 72 | 175 | 3.0 | 9.0 | 0.00 | 0.00 | 0.00 | 67 | 1013.1 |
| 20260508163513 | 72 | 178 | 4.0 | 8.0 | 0.00 | 0.00 | 0.00 | 67 | 1013.3 |
| 20260508163035 | 72 | 217 | 3.0 | 8.0 | 0.00 | 0.00 | 0.00 | 67 | 1013.4 |
| 20260508162514 | 71 | 173 | 2.0 | 7.0 | 0.00 | 0.00 | 0.00 | 67 | 1013.3 |
| 20260508162014 | 71 | 201 | 3.0 | 9.0 | 0.00 | 0.00 | 0.00 | 67 | 1013.4 |
| 20260508161532 | 71 | 220 | 3.0 | 10.0 | 0.00 | 0.00 | 0.00 | 68 | 1013.5 |
| 20260508161012 | 70 | 193 | 3.0 | 10.0 | 0.00 | 0.00 | 0.00 | 68 | 1013.5 |
| 20260508160515 | 70 | 203 | 0.0 | 6.0 | 0.00 | 0.00 | 0.00 | 70 | 1013.6 |
| 20260508160032 | 69 | 220 | 2.0 | 10.0 | 0.00 | 0.00 | 0.00 | 69 | 1013.6 |
| 20260508155516 | 69 | 226 | 3.0 | 10.0 | 0.00 | 0.00 | 0.00 | 69 | 1013.5 |
| 20260508155012 | 69 | 0 | 1.0 | 6.0 | 0.00 | 0.00 | 0.00 | 69 | 1013.7 |
| 20260508154531 | 69 | 181 | 1.0 | 7.0 | 0.00 | 0.00 | 0.00 | 69 | 1014.0 |
| 20260508154015 | 69 | 178 | 3.0 | 7.0 | 0.00 | 0.00 | 0.00 | 69 | 1013.8 |
| 20260508153515 | 69 | 202 | 3.0 | 7.0 | 0.00 | 0.00 | 0.00 | 69 | 1013.9 |
| 20260508153038 | 68 | 185 | 3.0 | 7.0 | 0.00 | 0.00 | 0.00 | 70 | 1013.8 |
| 20260508152516 | 68 | 169 | 2.0 | 6.0 | 0.00 | 0.00 | 0.00 | 69 | 1013.9 |
| 20260508152015 | 68 | 185 | 2.0 | 7.0 | 0.00 | 0.00 | 0.00 | 69 | 1014.1 |
| 20260508151530 | 68 | 202 | 3.0 | 8.0 | 0.00 | 0.00 | 0.00 | 69 | 1014.0 |
| 20260508151016 | 68 | 218 | 2.0 | 8.0 | 0.00 | 0.00 | 0.00 | 69 | 1014.0 |
| 20260508150514 | 68 | 195 | 2.0 | 7.0 | 0.00 | 0.00 | 0.00 | 69 | 1013.9 |
| 20260508150050 | 68 | 214 | 2.0 | 5.0 | 0.00 | 0.00 | 0.00 | 69 | 1013.9 |
| 20260508145513 | 68 | 199 | 1.0 | 7.0 | 0.00 | 0.00 | 0.00 | 69 | 1013.9 |
| 20260508145012 | 68 | 171 | 2.0 | 7.0 | 0.00 | 0.00 | 0.00 | 68 | 1013.8 |
| 20260508144531 | 68 | 200 | 1.0 | 7.0 | 0.00 | 0.00 | 0.00 | 69 | 1013.8 |
| 20260508144013 | 68 | 186 | 2.0 | 8.0 | 0.00 | 0.00 | 0.00 | 69 | 1013.8 |
| 20260508143514 | 68 | 200 | 3.0 | 8.0 | 0.00 | 0.00 | 0.00 | 69 | 1013.8 |
| 20260508143047 | 67 | 194 | 2.0 | 7.0 | 0.00 | 0.00 | 0.00 | 70 | 1013.9 |
| 20260508142514 | 67 | 220 | 1.0 | 6.0 | 0.00 | 0.00 | 0.00 | 72 | 1013.9 |
| 20260508142014 | 67 | 0 | 1.0 | 6.0 | 0.00 | 0.00 | 0.00 | 73 | 1014.2 |
| 20260508141532 | 66 | 209 | 2.0 | 7.0 | 0.00 | 0.00 | 0.00 | 73 | 1014.3 |
| 20260508141013 | 66 | 184 | 3.0 | 9.0 | 0.00 | 0.00 | 0.00 | 73 | 1014.1 |
| 20260508140516 | 66 | 153 | 2.0 | 10.0 | 0.00 | 0.00 | 0.00 | 73 | 1014.3 |
| 20260508140032 | 66 | 166 | 4.0 | 10.0 | 0.00 | 0.00 | 0.00 | 74 | 1014.2 |
| 20260508135517 | 65 | 0 | 1.0 | 6.0 | 0.00 | 0.00 | 0.00 | 76 | 1014.2 |
| 20260508135012 | 65 | 0 | 1.0 | 6.0 | 0.00 | 0.00 | 0.00 | 75 | 1014.1 |
| 20260508134534 | 65 | 0 | 1.0 | 5.0 | 0.00 | 0.00 | 0.00 | 76 | 1014.1 |
| 20260508134012 | 65 | 158 | 0.0 | 5.0 | 0.00 | 0.00 | 0.00 | 76 | 1014.1 |
| 20260508133514 | 64 | 152 | 0.0 | 3.0 | 0.00 | 0.00 | 0.00 | 77 | 1014.1 |
| 20260508133032 | 64 | 0 | 0.0 | 3.0 | 0.00 | 0.00 | 0.00 | 77 | 1014.1 |
| 20260508132513 | 64 | 0 | 0.0 | 7.0 | 0.00 | 0.00 | 0.00 | 77 | 1014.0 |
| 20260508132013 | 64 | 0 | 1.0 | 7.0 | 0.00 | 0.00 | 0.00 | 78 | 1014.0 |
| 20260508131533 | 64 | 0 | 0.0 | 3.0 | 0.00 | 0.00 | 0.00 | 78 | 1014.2 |
| 20260508131015 | 64 | 0 | 0.0 | 2.0 | 0.00 | 0.00 | 0.00 | 78 | 1014.4 |
| 20260508130512 | 64 | 0 | 0.0 | 5.0 | 0.00 | 0.00 | 0.00 | 78 | 1014.2 |
| 20260508130032 | 64 | 0 | 0.0 | 5.0 | 0.00 | 0.00 | 0.00 | 79 | 1014.2 |
| 20260508125514 | 64 | 0 | 0.0 | 1.0 | 0.00 | 0.00 | 0.00 | 79 | 1014.1 |
| 20260508125013 | 64 | 0 | 0.0 | 0.0 | 0.00 | 0.00 | 0.00 | 79 | 1014.2 |
| 20260508124533 | 63 | 0 | 0.0 | 0.0 | 0.00 | 0.00 | 0.00 | 80 | 1014.4 |
| 20260508124011 | 63 | 0 | 0.0 | 0.0 | 0.00 | 0.00 | 0.00 | 80 | 1014.2 |
| 20260508123514 | 63 | 0 | 0.0 | 0.0 | 0.00 | 0.00 | 0.00 | 80 | 1014.3 |
| 20260508123035 | 63 | 0 | 0.0 | 3.0 | 0.00 | 0.00 | 0.00 | 80 | 1014.6 |
| 20260508122513 | 63 | 0 | 0.0 | 3.0 | 0.00 | 0.00 | 0.00 | 80 | 1014.4 |
| 20260508122015 | 63 | 0 | 0.0 | 1.0 | 0.00 | 0.00 | 0.00 | 79 | 1014.2 |
| 20260508121532 | 63 | 0 | 0.0 | 0.0 | 0.00 | 0.00 | 0.00 | 79 | 1014.3 |
| 20260508121015 | 63 | 0 | 0.0 | 3.0 | 0.00 | 0.00 | 0.00 | 79 | 1014.2 |
| 20260508120511 | 63 | 0 | 0.0 | 3.0 | 0.00 | 0.00 | 0.00 | 79 | 1014.4 |
| 20260508120032 | 63 | 232 | 0.0 | 0.0 | 0.00 | 0.00 | 0.00 | 79 | 1014.3 |
| 20260508115512 | 63 | 0 | 0.0 | 0.0 | 0.00 | 0.00 | 0.00 | 79 | 1014.5 |
| 20260508115012 | 63 | 0 | 0.0 | 0.0 | 0.00 | 0.00 | 0.00 | 79 | 1014.4 |
| 20260508114534 | 63 | 0 | 0.0 | 4.0 | 0.00 | 0.00 | 0.00 | 79 | 1014.5 |
| 20260508114014 | 63 | 0 | 0.0 | 4.0 | 0.00 | 0.00 | 0.00 | 78 | 1014.4 |
| 20260508113514 | 63 | 169 | 0.0 | 5.0 | 0.00 | 0.00 | 0.00 | 79 | 1014.4 |
| 20260508113030 | 63 | 0 | 2.0 | 5.0 | 0.00 | 0.00 | 0.00 | 79 | 1014.3 |
| 20260508112512 | 63 | 0 | 0.0 | 5.0 | 0.00 | 0.00 | 0.00 | 79 | 1014.2 |
| 20260508112011 | 63 | 0 | 0.0 | 5.0 | 0.00 | 0.00 | 0.00 | 80 | 1014.1 |
| 20260508111533 | 63 | 0 | 0.0 | 2.0 | 0.00 | 0.00 | 0.00 | 80 | 1013.9 |
| 20260508111014 | 63 | 0 | 0.0 | 2.0 | 0.00 | 0.00 | 0.00 | 80 | 1014.0 |
| 20260508110514 | 63 | 239 | 0.0 | 1.0 | 0.00 | 0.00 | 0.00 | 80 | 1014.2 |
| 20260508110030 | 63 | 0 | 0.0 | 0.0 | 0.00 | 0.00 | 0.00 | 80 | 1014.5 |
| 20260508105512 | 63 | 0 | 0.0 | 2.0 | 0.00 | 0.00 | 0.00 | 80 | 1015.0 |
| 20260508105017 | 63 | 0 | 0.0 | 3.0 | 0.00 | 0.00 | 0.00 | 80 | 1015.0 |
| 20260508104533 | 63 | 0 | 0.0 | 3.0 | 0.00 | 0.00 | 0.00 | 80 | 1014.5 |
| 20260508104014 | 63 | 0 | 0.0 | 0.0 | 0.00 | 0.00 | 0.00 | 80 | 1014.4 |
| 20260508103511 | 63 | 0 | 0.0 | 0.0 | 0.00 | 0.00 | 0.00 | 80 | 1014.1 |
| 20260508103031 | 64 | 0 | 0.0 | 0.0 | 0.00 | 0.00 | 0.00 | 79 | 1013.8 |
| 20260508102513 | 64 | 0 | 0.0 | 1.0 | 0.00 | 0.00 | 0.00 | 79 | 1013.6 |
| 20260508102013 | 64 | 0 | 0.0 | 1.0 | 0.00 | 0.00 | 0.00 | 79 | 1013.4 |
| 20260508101540 | 64 | 0 | 0.0 | 3.0 | 0.00 | 0.00 | 0.00 | 79 | 1013.5 |
| 20260508101013 | 64 | 0 | 0.0 | 3.0 | 0.00 | 0.00 | 0.00 | 79 | 1013.5 |
| 20260508100511 | 64 | 0 | 0.0 | 3.0 | 0.00 | 0.00 | 0.00 | 79 | 1013.5 |
| 20260508100034 | 64 | 200 | 0.0 | 3.0 | 0.00 | 0.00 | 0.00 | 78 | 1013.5 |
| 20260508095513 | 64 | 0 | 0.0 | 4.0 | 0.00 | 0.00 | 0.00 | 78 | 1013.5 |
| 20260508095013 | 64 | 0 | 0.0 | 5.0 | 0.00 | 0.00 | 0.00 | 78 | 1013.6 |
| 20260508094532 | 64 | 0 | 0.0 | 5.0 | 0.00 | 0.00 | 0.00 | 78 | 1013.3 |
| 20260508094019 | 64 | 164 | 0.0 | 2.0 | 0.00 | 0.00 | 0.00 | 78 | 1013.5 |
| 20260508093513 | 64 | 0 | 0.0 | 2.0 | 0.00 | 0.00 | 0.00 | 78 | 1013.6 |
| 20260508093036 | 64 | 0 | 0.0 | 2.0 | 0.00 | 0.00 | 0.00 | 78 | 1013.6 |
| 20260508092513 | 64 | 0 | 0.0 | 0.0 | 0.00 | 0.00 | 0.00 | 78 | 1013.7 |
| 20260508092011 | 64 | 0 | 0.0 | 0.0 | 0.00 | 0.00 | 0.00 | 78 | 1013.7 |
| 20260508091534 | 64 | 0 | 0.0 | 0.0 | 0.00 | 0.00 | 0.00 | 78 | 1013.7 |
| 20260508091011 | 64 | 0 | 0.0 | 0.0 | 0.00 | 0.00 | 0.00 | 78 | 1013.7 |
| 20260508090514 | 64 | 0 | 0.0 | 0.0 | 0.00 | 0.00 | 0.00 | 78 | 1013.7 |
| 20260508090035 | 64 | 0 | 0.0 | 0.0 | 0.00 | 0.00 | 0.00 | 78 | 1013.7 |
| 20260508085513 | 64 | 0 | 0.0 | 0.0 | 0.00 | 0.00 | 0.00 | 77 | 1013.7 |
| 20260508085015 | 64 | 0 | 0.0 | 4.0 | 0.00 | 0.00 | 0.00 | 77 | 1014.1 |
| 20260508084532 | 64 | 0 | 0.0 | 4.0 | 0.00 | 0.00 | 0.00 | 77 | 1014.0 |
| 20260508084013 | 64 | 179 | 1.0 | 4.0 | 0.00 | 0.00 | 0.00 | 78 | 1013.8 |
| 20260508083512 | 64 | 178 | 0.0 | 2.0 | 0.00 | 0.00 | 0.00 | 78 | 1013.7 |
| 20260508083040 | 64 | 0 | 0.0 | 1.0 | 0.00 | 0.00 | 0.00 | 78 | 1013.8 |
| 20260508082512 | 64 | 0 | 0.0 | 1.0 | 0.00 | 0.00 | 0.00 | 78 | 1013.8 |
| 20260508082013 | 64 | 0 | 0.0 | 1.0 | 0.00 | 0.00 | 0.00 | 78 | 1014.4 |
| 20260508081534 | 64 | 0 | 0.0 | 0.0 | 0.00 | 0.00 | 0.00 | 78 | 1014.6 |
| 20260508081014 | 64 | 0 | 0.0 | 0.0 | 0.00 | 0.00 | 0.00 | 78 | 1014.6 |
| 20260508080513 | 64 | 0 | 0.0 | 0.0 | 0.00 | 0.00 | 0.00 | 78 | 1014.7 |
| 20260508080052 | 64 | 0 | 0.0 | 2.0 | 0.00 | 0.00 | 0.00 | 78 | 1014.7 |
| 20260508075514 | 64 | 0 | 0.0 | 2.0 | 0.00 | 0.00 | 0.00 | 78 | 1015.1 |
| 20260508075013 | 63 | 0 | 0.0 | 0.0 | 0.00 | 0.00 | 0.00 | 77 | 1015.4 |
| 20260508074533 | 63 | 0 | 0.0 | 0.0 | 0.00 | 0.00 | 0.00 | 77 | 1015.4 |
| 20260508074013 | 63 | 0 | 0.0 | 0.0 | 0.00 | 0.00 | 0.00 | 77 | 1015.1 |
| 20260508073514 | 63 | 0 | 0.0 | 0.0 | 0.00 | 0.00 | 0.00 | 77 | 1015.0 |
| 20260508073032 | 63 | 0 | 0.0 | 0.0 | 0.00 | 0.00 | 0.00 | 77 | 1014.6 |
| 20260508072512 | 63 | 0 | 0.0 | 0.0 | 0.00 | 0.00 | 0.00 | 77 | 1014.7 |
| 20260508072012 | 63 | 0 | 0.0 | 0.0 | 0.00 | 0.00 | 0.00 | 77 | 1014.6 |
| 20260508071534 | 63 | 0 | 0.0 | 0.0 | 0.00 | 0.00 | 0.00 | 77 | 1014.6 |
| 20260508071013 | 63 | 0 | 0.0 | 0.0 | 0.00 | 0.00 | 0.00 | 77 | 1014.9 |
| 20260508070513 | 63 | 0 | 0.0 | 0.0 | 0.00 | 0.00 | 0.00 | 77 | 1014.9 |
| 20260508070031 | 63 | 0 | 0.0 | 0.0 | 0.00 | 0.00 | 0.00 | 77 | 1014.8 |
| 20260508065513 | 63 | 0 | 0.0 | 0.0 | 0.00 | 0.00 | 0.00 | 77 | 1014.8 |
| 20260508065010 | 63 | 0 | 0.0 | 0.0 | 0.00 | 0.00 | 0.00 | 78 | 1014.9 |
| 20260508064542 | 63 | 0 | 0.0 | 0.0 | 0.00 | 0.00 | 0.00 | 77 | 1015.0 |
| 20260508064014 | 63 | 0 | 0.0 | 0.0 | 0.00 | 0.00 | 0.00 | 77 | 1015.3 |
| 20260508063514 | 63 | 0 | 0.0 | 0.0 | 0.00 | 0.00 | 0.00 | 78 | 1015.5 |
| 20260508063033 | 63 | 0 | 0.0 | 0.0 | 0.00 | 0.00 | 0.00 | 78 | 1015.4 |
| 20260508062519 | 63 | 0 | 0.0 | 0.0 | 0.00 | 0.00 | 0.00 | 77 | 1015.2 |
| 20260508062014 | 63 | 0 | 0.0 | 0.0 | 0.00 | 0.00 | 0.00 | 77 | 1015.4 |
| 20260508061535 | 63 | 0 | 0.0 | 0.0 | 0.00 | 0.00 | 0.00 | 77 | 1015.4 |
| 20260508061016 | 63 | 0 | 0.0 | 0.0 | 0.00 | 0.00 | 0.00 | 77 | 1015.5 |
| 20260508060517 | 63 | 0 | 0.0 | 0.0 | 0.00 | 0.00 | 0.00 | 77 | 1015.4 |
| 20260508060033 | 63 | 0 | 0.0 | 0.0 | 0.00 | 0.00 | 0.00 | 77 | 1015.4 |
| 20260508055513 | 63 | 0 | 0.0 | 0.0 | 0.00 | 0.00 | 0.00 | 77 | 1015.1 |
| 20260508055012 | 63 | 0 | 0.0 | 0.0 | 0.00 | 0.00 | 0.00 | 77 | 1015.3 |
| 20260508054542 | 63 | 0 | 0.0 | 0.0 | 0.00 | 0.00 | 0.00 | 77 | 1015.6 |
| 20260508054013 | 63 | 0 | 0.0 | 0.0 | 0.00 | 0.00 | 0.00 | 77 | 1015.3 |
| 20260508053512 | 63 | 0 | 0.0 | 0.0 | 0.00 | 0.00 | 0.00 | 76 | 1015.4 |
| 20260508053030 | 63 | 0 | 0.0 | 0.0 | 0.00 | 0.00 | 0.00 | 76 | 1015.3 |
| 20260508052515 | 63 | 0 | 0.0 | 0.0 | 0.00 | 0.00 | 0.00 | 76 | 1015.4 |
| 20260508052014 | 63 | 0 | 0.0 | 0.0 | 0.00 | 0.00 | 0.00 | 75 | 1015.5 |
| 20260508051534 | 63 | 0 | 0.0 | 0.0 | 0.00 | 0.00 | 0.00 | 75 | 1015.4 |
| 20260508051016 | 64 | 0 | 0.0 | 0.0 | 0.00 | 0.00 | 0.00 | 75 | 1015.4 |
| 20260508050515 | 64 | 0 | 0.0 | 0.0 | 0.00 | 0.00 | 0.00 | 75 | 1015.3 |
| 20260508050045 | 64 | 0 | 0.0 | 0.0 | 0.00 | 0.00 | 0.00 | 74 | 1015.2 |
| 20260508045513 | 64 | 0 | 0.0 | 0.0 | 0.00 | 0.00 | 0.00 | 74 | 1015.4 |
| 20260508045014 | 64 | 0 | 0.0 | 0.0 | 0.00 | 0.00 | 0.00 | 74 | 1015.4 |
| 20260508044534 | 64 | 0 | 0.0 | 0.0 | 0.00 | 0.00 | 0.00 | 74 | 1015.6 |
| 20260508044013 | 64 | 0 | 0.0 | 0.0 | 0.00 | 0.00 | 0.00 | 74 | 1015.5 |
| 20260508043513 | 64 | 0 | 0.0 | 0.0 | 0.00 | 0.00 | 0.00 | 74 | 1015.3 |
| 20260508043032 | 64 | 0 | 0.0 | 0.0 | 0.00 | 0.00 | 0.00 | 73 | 1015.4 |
| 20260508042512 | 64 | 0 | 0.0 | 0.0 | 0.00 | 0.00 | 0.00 | 73 | 1015.3 |
| 20260508042014 | 64 | 0 | 0.0 | 0.0 | 0.00 | 0.00 | 0.00 | 72 | 1015.4 |
| 20260508041530 | 64 | 0 | 0.0 | 0.0 | 0.00 | 0.00 | 0.00 | 72 | 1015.4 |
| 20260508041013 | 64 | 0 | 0.0 | 0.0 | 0.00 | 0.00 | 0.00 | 72 | 1015.4 |
| 20260508040513 | 65 | 0 | 0.0 | 0.0 | 0.00 | 0.00 | 0.00 | 72 | 1015.4 |
| 20260508040047 | 65 | 0 | 0.0 | 0.0 | 0.00 | 0.00 | 0.00 | 72 | 1015.3 |
| 20260508035515 | 65 | 0 | 0.0 | 0.0 | 0.00 | 0.00 | 0.00 | 72 | 1015.4 |
| 20260508035017 | 65 | 0 | 0.0 | 0.0 | 0.00 | 0.00 | 0.00 | 71 | 1015.3 |
| 20260508034541 | 65 | 0 | 0.0 | 0.0 | 0.00 | 0.00 | 0.00 | 71 | 1015.3 |
| 20260508034014 | 65 | 0 | 0.0 | 0.0 | 0.00 | 0.00 | 0.00 | 71 | 1015.3 |
| 20260508033511 | 65 | 0 | 0.0 | 0.0 | 0.00 | 0.00 | 0.00 | 71 | 1015.3 |
| 20260508033035 | 65 | 0 | 0.0 | 0.0 | 0.00 | 0.00 | 0.00 | 70 | 1015.2 |
| 20260508032513 | 66 | 0 | 0.0 | 0.0 | 0.00 | 0.00 | 0.00 | 70 | 1015.2 |
| 20260508032014 | 66 | 0 | 0.0 | 0.0 | 0.00 | 0.00 | 0.00 | 69 | 1015.3 |
| 20260508031533 | 66 | 0 | 0.0 | 0.0 | 0.00 | 0.00 | 0.00 | 69 | 1015.2 |
| 20260508031018 | 66 | 0 | 0.0 | 0.0 | 0.00 | 0.00 | 0.00 | 69 | 1015.2 |
| 20260508030515 | 66 | 0 | 0.0 | 0.0 | 0.00 | 0.00 | 0.00 | 69 | 1015.3 |
| 20260508030033 | 66 | 0 | 0.0 | 0.0 | 0.00 | 0.00 | 0.00 | 68 | 1015.1 |
| 20260508025513 | 66 | 0 | 0.0 | 0.0 | 0.00 | 0.00 | 0.00 | 68 | 1015.0 |
| 20260508025014 | 66 | 0 | 0.0 | 0.0 | 0.00 | 0.00 | 0.00 | 68 | 1015.1 |